Lexington, KY

10:54 AM EDT on October 21, 2017 (GMT -0400)
Blue Grass

Weather History for KLEX - January, 2015

Change the Weather History Date:

Sunday, January 4, 2015

  Actual Average Record
Temperature  
Mean Temperature 42 °F 33 °F  
Max Temperature 59 °F 41 °F 68 °F (2004)
Min Temperature 25 °F 25 °F 0 °F (1959)
Degree Days  
Heating Degree Days 23 32  
Month to date heating degree days 103 128  
Since 1 July heating degree days 1921 1916  
Cooling Degree Days 0 0  
Month to date cooling degree days 0 0  
Year to date cooling degree days 0 0  
Moisture  
Dew Point 43 °F    
Average Humidity 82    
Maximum Humidity 93    
Minimum Humidity 70    
Precipitation  
Precipitation 0.27 in 0.11 in 1.38 in (1950)
Month to date precipitation 0.75 0.43  
Year to date precipitation 0.75 0.43  
Snow  
Snow 0.00 in 0.10 in 5.10 in (1893)
Month to date snowfall 0.0 0.4  
Since 1 July snowfall 1.6 3.2  
Snow Depth 0.00 in    
Sea Level Pressure  
Sea Level Pressure 29.96 in    
Wind  
Wind Speed 16 mph (WSW)    
Max Wind Speed 28 mph    
Max Gust Speed 37 mph    
Visibility 9 miles    
Events Rain    
T = Trace of Precipitation, MM = Missing Value Source: NWS Daily Summary

Daily Weather History Graph

Daily Weather History Graph

Search for Another Location

Airport or City:

Trip Planner

Search our weather history database for the weather conditions in past years. The results will help you decide how hot, cold, wet, or windy it might be!

Date:

Astronomy

Jan. 04, 2015 Rise Set
Actual Time 7:54 AM EST 5:31 PM EST
Civil Twilight 7:25 AM EST 6:01 PM EST
Nautical Twilight 6:52 AM EST 6:34 PM EST
Astronomical Twilight 6:20 AM EST 7:06 PM EST
Moon 5:30 PM EST (1/4) 7:07 AM EST (1/4)
Length of Visible Light 10h 35m
Length of Day
9h 37m
Full, 100% of the Moon is Illuminated
Jan 4
Full
Jan 4
Full
Jan 13
Last Quarter
Jan 20
New
Jan 26
First Quarter

Hourly Weather History & Observations

Time (EST) Temp. Windchill Dew Point Humidity Pressure Visibility Wind Dir Wind Speed Gust Speed Precip Events Conditions
12:22 AM 57.9 °F - 55.9 °F 93% 29.81 in 10.0 mi South 15.0 mph 24.2 mph 0.02 in   Overcast
12:37 AM 57.9 °F - 55.9 °F 93% 29.80 in 10.0 mi South 13.8 mph - 0.02 in   Overcast
12:54 AM 57.9 °F - 55.9 °F 93% 29.81 in 10.0 mi SSW 15.0 mph - 0.02 in   Overcast
1:32 AM 57.9 °F - 55.0 °F 90% 29.81 in 10.0 mi South 13.8 mph - N/A   Scattered Clouds
1:54 AM 57.9 °F - 55.0 °F 90% 29.79 in 10.0 mi South 15.0 mph - N/A   Mostly Cloudy
2:54 AM 57.9 °F - 55.0 °F 90% 29.78 in 10.0 mi South 18.4 mph - N/A   Overcast
3:36 AM 57.9 °F - 55.0 °F 90% 29.78 in 10.0 mi South 13.8 mph - 0.00 in Rain Light Rain
3:54 AM 57.9 °F - 55.9 °F 93% 29.77 in 10.0 mi South 19.6 mph 25.3 mph 0.00 in   Overcast
4:42 AM 59.0 °F - 55.9 °F 90% 29.76 in 9.0 mi South 20.7 mph 27.6 mph 0.00 in Rain Light Rain
4:54 AM 57.9 °F - 55.9 °F 93% 29.75 in 5.0 mi South 20.7 mph - 0.00 in Rain Rain
5:21 AM 57.9 °F - 55.9 °F 93% 29.75 in 5.0 mi South 19.6 mph 25.3 mph 0.11 in Rain Light Rain
5:32 AM 57.0 °F - 55.9 °F 96% 29.78 in 1.8 mi West 25.3 mph 36.8 mph 0.13 in Rain Heavy Rain
5:38 AM 55.9 °F - 54.0 °F 93% 29.79 in 1.5 mi West 24.2 mph 36.8 mph 0.24 in Rain Rain
5:42 AM 55.9 °F - 54.0 °F 93% 29.79 in 3.0 mi West 19.6 mph 31.1 mph 0.26 in Rain Light Rain
5:50 AM 55.4 °F - 53.6 °F 94% 29.79 in 5.0 mi West 17.3 mph 29.9 mph 0.26 in Rain Light Rain
5:54 AM 55.0 °F - 54.0 °F 96% 29.78 in 6.0 mi West 17.3 mph 29.9 mph 0.26 in Rain Light Rain
5:59 AM 55.0 °F - 53.1 °F 93% 29.79 in 10.0 mi WSW 18.4 mph 27.6 mph 0.00 in Rain Light Rain
6:18 AM 55.0 °F - 52.0 °F 89% 29.80 in 10.0 mi WSW 20.7 mph 25.3 mph 0.00 in   Overcast
6:34 AM 54.0 °F - 52.0 °F 93% 29.81 in 10.0 mi WSW 20.7 mph 32.2 mph 0.00 in   Overcast
6:41 AM 54.0 °F - 52.0 °F 93% 29.81 in 6.0 mi WSW 18.4 mph 32.2 mph 0.00 in Rain Light Rain
6:54 AM 53.1 °F - 51.1 °F 93% 29.81 in 5.0 mi WSW 20.7 mph 27.6 mph 0.00 in Rain Light Rain
7:05 AM 53.1 °F - 51.1 °F 93% 29.83 in 10.0 mi West 24.2 mph 34.5 mph 0.00 in   Overcast
7:21 AM 53.1 °F - 50.0 °F 89% 29.84 in 9.0 mi West 18.4 mph 32.2 mph 0.00 in Rain Light Rain
7:51 AM 51.8 °F - 48.2 °F 88% 29.87 in 10.0 mi WSW 16.1 mph 26.5 mph 0.00 in   Mostly Cloudy
7:54 AM 52.0 °F - 48.0 °F 86% 29.86 in 10.0 mi WSW 20.7 mph 26.5 mph 0.00 in   Mostly Cloudy
8:29 AM 51.1 °F - 46.0 °F 83% 29.90 in 10.0 mi WSW 18.4 mph 28.8 mph N/A   Mostly Cloudy
8:46 AM 50.0 °F - 45.0 °F 83% 29.90 in 10.0 mi WSW 19.6 mph 29.9 mph N/A   Scattered Clouds
8:54 AM 50.0 °F - 44.6 °F 82% 29.91 in 10.0 mi WSW 16.1 mph 27.6 mph N/A   Partly Cloudy
9:44 AM 48.9 °F - 44.1 °F 83% 29.94 in 10.0 mi WSW 19.6 mph 24.2 mph 0.00 in Rain Light Rain
9:54 AM 48.0 °F - 44.1 °F 86% 29.94 in 10.0 mi WSW 18.4 mph 25.3 mph 0.00 in   Overcast
10:54 AM 48.0 °F - 42.1 °F 80% 29.96 in 10.0 mi West 12.7 mph 23.0 mph N/A   Overcast
11:54 AM 45.0 °F 38.2 °F 39.9 °F 82% 29.98 in 10.0 mi West 15.0 mph 24.2 mph 0.00 in Rain Light Rain
12:54 PM 44.1 °F 36.5 °F 37.0 °F 76% 29.98 in 10.0 mi West 17.3 mph - 0.00 in   Overcast
1:38 PM 43.0 °F 34.5 °F 36.0 °F 76% 29.99 in 10.0 mi WSW 19.6 mph 24.2 mph N/A   Overcast
1:54 PM 43.0 °F 35.4 °F 36.0 °F 76% 29.99 in 10.0 mi West 16.1 mph 25.3 mph 0.00 in Rain Light Rain
2:29 PM 41.0 °F 31.9 °F 36.0 °F 82% 30.01 in 10.0 mi West 19.6 mph 29.9 mph 0.00 in   Overcast
2:39 PM 41.0 °F 32.8 °F 35.1 °F 79% 30.03 in 10.0 mi West 16.1 mph 26.5 mph 0.00 in   Overcast
2:54 PM 41.0 °F 32.5 °F 35.1 °F 79% 30.04 in 10.0 mi West 17.3 mph 23.0 mph 0.00 in Rain Light Rain
3:20 PM 39.9 °F 31.8 °F 33.1 °F 77% 30.06 in 10.0 mi West 15.0 mph 28.8 mph 0.00 in   Overcast
3:54 PM 39.9 °F 30.5 °F 32.0 °F 73% 30.10 in 10.0 mi West 19.6 mph 25.3 mph 0.00 in   Overcast
4:54 PM 37.9 °F 29.6 °F 28.9 °F 70% 30.17 in 10.0 mi West 13.8 mph 24.2 mph N/A   Overcast
5:54 PM 37.9 °F 29.6 °F 28.0 °F 68% 30.20 in 10.0 mi West 13.8 mph - N/A   Overcast
6:54 PM 37.0 °F 28.5 °F 28.0 °F 70% 30.24 in 10.0 mi WNW 13.8 mph 20.7 mph N/A   Overcast
7:54 PM 36.0 °F 26.7 °F 28.0 °F 73% 30.26 in 10.0 mi West 15.0 mph - N/A   Overcast
8:01 PM 36.0 °F 27.5 °F 28.0 °F 73% 30.25 in 10.0 mi WNW 12.7 mph - N/A   Overcast
8:54 PM 35.1 °F 25.5 °F 28.9 °F 78% 30.30 in 10.0 mi West 15.0 mph 21.9 mph N/A   Overcast
9:28 PM 33.1 °F 20.9 °F 28.0 °F 82% 30.32 in 9.0 mi WNW 21.9 mph 27.6 mph N/A   Overcast
9:54 PM 30.9 °F 20.2 °F 27.0 °F 85% 30.36 in 9.0 mi WNW 15.0 mph 21.9 mph N/A   Overcast
10:54 PM 28.0 °F 16.5 °F 23.0 °F 81% 30.39 in 10.0 mi WNW 15.0 mph 21.9 mph N/A   Overcast
11:17 PM 27.0 °F 15.2 °F 21.0 °F 78% 30.38 in 10.0 mi WNW 15.0 mph 23.0 mph N/A   Overcast
11:54 PM 25.0 °F 13.6 °F 19.0 °F 78% 30.43 in 10.0 mi WNW 12.7 mph 21.9 mph N/A   Overcast